This is the latest recevied weather packets stored in our database for station/object F4ELU-13. If no packets are shown the sender has not sent any weather packets the latest 10 day(s).
| Time | Temp. | Humidity | Pressure | Rain* | Wind** | Luminosity | Snow |
|---|---|---|---|---|---|---|---|
| 1778227744 | 13.33° C | 90% | 1014.2 hPa | 0 mm | - | - | - |
| 1778227203 | 12.22° C | 91% | 1014.2 hPa | 0 mm | - | - | - |
| 1778226843 | 12.22° C | 92% | 1014.2 hPa | 0 mm | - | - | - |
| 1778226303 | 11.67° C | 91% | 1014.3 hPa | 0 mm | - | - | - |
| 1778225763 | 11.67° C | 91% | 1014.3 hPa | 0 mm | - | - | - |
| 1778225223 | 11.11° C | 94% | 1014.2 hPa | 0 mm | - | - | - |
| 1778224683 | 10.56° C | 95% | 1014.3 hPa | 0 mm | - | - | - |
| 1778224143 | 10° C | 96% | 1014.1 hPa | 0 mm | - | - | - |
| 1778223603 | 10° C | 96% | 1014.3 hPa | 0 mm | - | - | - |
| 1778223243 | 10° C | 96% | 1014.2 hPa | 0 mm | - | - | - |
| 1778222703 | 9.44° C | 97% | 1014.2 hPa | 0 mm | - | - | - |
| 1778222164 | 9.44° C | 97% | 1014.2 hPa | 0 mm | - | - | - |
| 1778221623 | 9.44° C | 98% | 1014.1 hPa | 0 mm | - | - | - |
| 1778221083 | 9.44° C | 98% | 1014.1 hPa | 0 mm | - | - | - |
| 1778220543 | 8.89° C | 98% | 1014.1 hPa | 0 mm | - | - | - |
| 1778220003 | 8.89° C | 98% | 1014 hPa | 0 mm | - | - | - |
| 1778219643 | 8.89° C | 99% | 1013.9 hPa | 0 mm | - | - | - |
| 1778219103 | 8.89° C | 99% | 1013.9 hPa | 0 mm | - | - | - |
| 1778218563 | 8.33° C | 99% | 1013.8 hPa | 0 mm | - | - | - |
| 1778218023 | 8.33° C | 99% | 1013.9 hPa | 0 mm | - | - | - |
| 1778217483 | 8.33° C | 99% | 1013.8 hPa | 0 mm | - | - | - |
| 1778216943 | 8.33° C | 99% | 1013.7 hPa | 0 mm | - | - | - |
| 1778216403 | 7.78° C | 99% | 1013.7 hPa | 0 mm | - | - | - |
| 1778216043 | 7.78° C | 99% | 1013.7 hPa | 0 mm | - | - | - |
| 1778215503 | 7.78° C | 99% | 1013.7 hPa | 0 mm | - | - | - |
* Rain latest hour (hover to see other rain measurements)
** Current wind speed in m/s (hover to see current wind gust speed)